Location: Davayat
(45.9471°N, 3.1105°E)
Time: 17:52:27
(UTC+00:00)

Cosmos 2263 - Pass Details

Date: 01 December 2020
Orbit: 833 x 863 km, 70.9° (Epoch: 17 January)

Event Time Altitude Azimuth Distance (km) Brightness Sun altitude
Rises 17:11:44 0° 337° (NNW) 3,394 7.4 -11.4°
Reaches altitude 10° 17:14:18 10° 344° (NNW) 2,454 6.6 -11.8°
Maximum altitude 17:19:40 44° 56° (NE) 1,151 4.5 -12.7°
Drops below altitude 10° 17:24:58 10° 128° (SE) 2,440 6.3 -13.6°
Sets 17:27:31 0° 135° (SE) 3,372 7.1 -14.0°
